ATLAS 5 CENTAUR DEB, 44642

Orbit data source: Space-Track

ATLAS 5 CENTAUR DEB, 44642 is space debris in HEO originally from a launch on Wed, 17 Oct 2018 UTC launched from the Air Force Eastern Test Range (AFETR). Debris objects in space refer to the collection of defunct objects orbiting the Earth. Examples of debris include non-operational satellites, rocket bodies, and fragments generated from explosions, collisions, or faulty payload assembly.

Loading next visibility...
Identifier
44642, 2018-079C
Orbit
HEO
Country
Flag of USUS
Related business
Flag of USUnited Launch Alliance/Lockheed Martin (US)
Manufacturer
ULA Decatur
Mission
Spacecraft
Bus & Motor
Unknown
Mass
Unknown
Launch date (UTC)
2018-10-17 (8 years ago)
Launch vehicle
Unknown
Launch site
Air Force Eastern Test Range (AFETR)
Object type
Payload
Rocket body
Debris
Shape & HBR
Unknown shape, 1.1 m
Radar Cross Section
Large (>1 m²)

Expand to show TLE details & history
Last TLE update: 2 days ago

TLE from 2 days ago
0 ATLAS 5 CENTAUR DEB
1 44642U 18079C   26254.24439024 -.00000194  00000-0  00000-0 0  9997
2 44642  13.3506  19.9042 4641578 349.2180   3.4011  1.84467955 53238
Epoch: 2026-09-11T05:51Z
TLE epoch observation values (Epoch: 2026-09-11T05:51:55.316Z)
Latitude
-0.00011°
Longitude
-58.32822°
Altitude
8,729.836 km
Speed
6.211 km/s
True Right ascension
01h 19m 41s
True Declination
0° 00' 00"
Sunlit
Object was in daylight at epoch
Visualization orbit readout
Latitude
Unknown
Longitude
Unknown
Altitude
Unknown
Speed
Unknown
Apparent Right ascension
Unknown
Apparent Declination
Unknown
Sunlit
N/A
Visualization observer readout
Local Sidereal Time
17:12:41
Azimuth
Unknown
Elevation
Unknown
Doppler factor
Unknown
Orbital elements
Apogee altitude
34,743.918 km
Perigee altitude
8,671.424 km
Semi-major axis
28,085.808 km
Eccentricity
0.46416
Inclination
13.3506°
RAAN
19.9042°
Arg. of periapsis
349.218°
True anomaly
10.45509°
Mean anomaly
3.4011°
Eccentric anomaly
6.33603°
Mean motion
0.46112 °/min
Orbital period
780.71 mins
BSTAR
0
Loading maneuver chart data...
Computing Atmospheric mass density...

Documentation

Showing up to 5 results
|